Stations météo

réclame
Mon MeteoGroup
Landsort, Suède (2582): Température de l'air & dewpoint: 10.12.2017 19:00:00 - 16.12.2017 19:00:00 (CET)Landsort, Suède (2582): Vitesse du vent & gusts: 10.12.2017 19:00:00 - 16.12.2017 19:00:00 (CET)Landsort, Suède (2582): Direction du vent: 10.12.2017 19:00:00 - 16.12.2017 19:00:00 (CET)Landsort, Suède (2582): reduced air pressure: 10.12.2017 19:00:00 - 16.12.2017 19:00:00 (CET)Landsort, Suède (2582): visibility: 10.12.2017 19:00:00 - 16.12.2017 19:00:00 (CET)Landsort, Suède (2582): Quantités de précipitations: 10.12.2017 19:00:00 - 16.12.2017 19:00:00 (CET)
Date & Time tt [°C] td [°C] ff [km/h] ff [knt] fx [km/h] fx [knt] dd ppp [hPa] vv [km] rr [mm]
16.12.2017 19:00:00 - - - - - - - - - -
16.12.2017 18:00:00 1,6 1,5 10 5 19 10 N 1001,9 11 0,0
16.12.2017 17:00:00 1,5 1,4 10 5 18 10 NW 1001,2 6 0,0
16.12.2017 16:00:00 1,2 1,1 11 6 20 11 WNW 1000,5 6 0,0
16.12.2017 15:00:00 1,2 1,1 15 8 20 11 W 999,8 3,6 0,0
16.12.2017 14:00:00 1,4 0,2 13 7 22 12 W 999,2 23 0,0
16.12.2017 13:00:00 1,4 -0,1 13 7 24 13 W 998,7 50 0,0
16.12.2017 12:00:00 1,4 -0,4 16 9 25 14 W 998,2 50 0,0
16.12.2017 11:00:00 1,4 -0,7 19 10 32 17 WNW 997,8 50 0,0
16.12.2017 10:00:00 1,4 -1,0 21 12 34 18 W 997,4 50 0,0
16.12.2017 09:00:00 1,5 -1,1 25 13 39 21 WNW 996,6 50 0,0
16.12.2017 08:00:00 1,7 -1,0 27 15 39 21 W 996,2 50 0,0
16.12.2017 07:00:00 1,5 -0,7 27 15 33 18 W 995,7 50 0,0
16.12.2017 06:00:00 1,3 -0,8 24 13 35 19 W 995,2 50 0,0
16.12.2017 05:00:00 1,4 -0,7 22 12 35 19 W 994,8 50 0,0
16.12.2017 04:00:00 1,3 0,0 29 15 37 20 W 994,2 50 0,0
16.12.2017 03:00:00 1,5 0,0 29 16 38 20 W 993,5 50 0,0
16.12.2017 02:00:00 1,8 0,2 29 16 38 20 W 993,1 50 0,0
16.12.2017 01:00:00 1,9 0,4 28 15 36 20 W 992,7 50 0,0
16.12.2017 00:00:00 2,0 0,7 25 13 39 21 W 992,4 50 0,0
15.12.2017 23:00:00 2,1 0,6 31 17 41 22 W 991,9 50 0,0
15.12.2017 22:00:00 2,1 0,6 32 17 41 22 W 991,2 50 0,0
15.12.2017 21:00:00 2,1 0,9 25 14 38 21 W 990,6 50 0,0
15.12.2017 20:00:00 1,8 1,4 28 15 38 20 W 989,9 50 0,0
15.12.2017 19:00:00 1,7 1,6 29 16 38 21 WNW 988,9 50 0,0
15.12.2017 18:00:00 1,8 1,7 28 15 38 21 WNW 988,3 50 0,0
15.12.2017 17:00:00 2,0 1,9 29 16 38 21 WNW 987,4 47 0,0
15.12.2017 16:00:00 2,0 1,9 27 15 38 21 W 986,6 42 0,0
15.12.2017 15:00:00 1,9 1,8 27 15 38 21 W 985,8 27 0,1
15.12.2017 14:00:00 1,9 1,8 29 16 36 19 W 984,7 20 0,2
15.12.2017 13:00:00 1,5 1,4 30 16 35 19 W 984,2 8 0,1
15.12.2017 12:00:00 1,7 1,6 26 14 31 17 W 983,6 7 0,2
15.12.2017 11:00:00 1,7 1,6 18 10 23 13 W 983,0 26 0,0
15.12.2017 10:00:00 1,8 1,5 16 8 24 13 WSW 982,7 12 0,1
15.12.2017 09:00:00 2,2 1,3 16 8 26 14 SW 982,1 16 0,3
15.12.2017 08:00:00 2,0 1,6 17 9 30 16 SSW 981,7 8 0,6
15.12.2017 07:00:00 2,5 1,9 18 10 32 17 SSW 981,1 20 0,2
15.12.2017 06:00:00 2,4 2,1 20 11 34 19 SSW 980,7 7 0,2
15.12.2017 05:00:00 2,6 1,9 22 12 40 21 SSW 980,4 50 0,0
15.12.2017 04:00:00 3,0 2,1 24 13 49 26 SSW 979,9 47 0,0
15.12.2017 03:00:00 3,3 2,6 29 16 49 26 SSW 979,5 22 0,1
15.12.2017 02:00:00 3,3 2,4 39 21 49 26 SSW 979,0 50 0,0
15.12.2017 01:00:00 4,5 3,8 23 12 44 24 S 978,2 30 0,0
15.12.2017 00:00:00 3,7 3,0 32 17 44 24 S 977,9 14 0,1
14.12.2017 23:00:00 4,5 3,5 29 16 39 21 SSE 977,6 22 0,1
14.12.2017 22:00:00 4,0 3,0 29 16 48 26 S 977,5 15 0,0
14.12.2017 21:00:00 4,4 3,5 25 13 58 31 SE 977,8 11 0,2
14.12.2017 20:00:00 4,3 3,6 44 24 61 33 E 978,1 14 0,0
14.12.2017 19:00:00 3,7 2,8 49 27 61 33 E 979,1 7 0,3
14.12.2017 18:00:00 4,2 2,2 44 24 54 29 ESE 980,2 23 0,0
14.12.2017 17:00:00 4,0 2,2 40 22 53 28 SE 981,1 12 0,0
14.12.2017 16:00:00 3,7 2,7 39 21 52 28 SE 981,9 6 0,2
14.12.2017 15:00:00 3,9 3,3 39 21 47 26 SSE 982,3 7 0,1
14.12.2017 14:00:00 3,6 3,2 36 19 50 27 SSE 982,8 6 0,0
14.12.2017 13:00:00 3,6 2,4 42 23 56 30 SSE 983,0 8 0,0
14.12.2017 12:00:00 3,7 2,2 42 23 64 35 SSE 983,8 10 0,0
14.12.2017 11:00:00 3,9 1,9 47 26 72 39 SSE 984,3 13 0,0
14.12.2017 10:00:00 3,3 2,0 53 29 72 39 SSE 984,8 7 0,2
14.12.2017 09:00:00 3,7 2,1 52 28 73 40 SSE 985,3 6 0,2
14.12.2017 08:00:00 4,0 1,7 51 27 73 40 SSE 985,6 9 0,0
14.12.2017 07:00:00 4,5 1,2 54 29 69 38 SSE 986,0 17 0,0
14.12.2017 06:00:00 4,4 1,1 54 29 67 36 SSE 986,5 14 0,0
14.12.2017 05:00:00 4,5 1,4 52 28 67 36 S 987,3 15 0,0
14.12.2017 04:00:00 4,5 1,9 48 26 68 37 S 988,0 14 0,0
14.12.2017 03:00:00 4,6 1,3 44 24 68 37 S 989,2 20 0,0
14.12.2017 02:00:00 4,6 1,1 45 25 66 36 S 990,1 23 0,0
14.12.2017 01:00:00 4,6 0,7 45 25 72 39 S 990,6 20 0,0
14.12.2017 00:00:00 4,4 0,4 48 26 73 39 SSW 991,6 33 0,0
13.12.2017 23:00:00 4,3 -0,1 53 29 76 41 SSW 992,4 28 0,0
13.12.2017 22:00:00 4,3 1,0 52 28 80 43 SSW 993,1 22 0,0
13.12.2017 21:00:00 4,2 0,9 53 28 80 43 SSW 993,8 12 0,0
13.12.2017 20:00:00 4,3 1,3 48 26 73 39 SSW 994,6 20 0,0
13.12.2017 19:00:00 4,3 0,6 47 26 73 39 SSW 995,3 36 0,0
13.12.2017 18:00:00 3,8 0,1 44 24 66 36 SSW 995,9 39 0,0
13.12.2017 17:00:00 2,8 -0,7 38 20 65 35 SW 996,7 48 0,0
13.12.2017 16:00:00 2,9 -1,1 44 24 65 35 SW 997,2 42 0,0
13.12.2017 15:00:00 - - - - - - - - - -
13.12.2017 14:00:00 - - - - - - - - - -
13.12.2017 13:00:00 3,6 1,5 49 26 69 38 SW 997,6 44 0,0
13.12.2017 12:00:00 3,7 1,4 49 26 65 35 SW 997,6 37 0,0
13.12.2017 11:00:00 3,7 1,6 45 24 63 34 WSW 997,7 31 0,0
13.12.2017 10:00:00 3,0 1,8 39 21 53 28 WSW 998,1 6 0,1
13.12.2017 09:00:00 2,2 1,8 35 19 47 26 SW 998,3 12 0,0
13.12.2017 08:00:00 2,1 0,6 29 15 40 22 SW 998,6 50 0,0
13.12.2017 07:00:00 0,9 -1,7 30 16 41 22 SW 998,9 50 0,0
13.12.2017 06:00:00 -0,1 -2,5 22 12 46 25 WSW 999,0 50 0,0
13.12.2017 05:00:00 -0,3 -2,7 34 18 61 33 WSW 998,9 50 0,0
13.12.2017 04:00:00 -0,6 -2,7 38 20 61 33 W 998,8 50 0,0
13.12.2017 03:00:00 -1,0 -2,9 42 23 58 31 W 998,5 50 0,0
13.12.2017 02:00:00 -0,9 -2,8 41 22 58 31 W 997,9 50 0,0
13.12.2017 01:00:00 -1,4 -3,3 42 23 54 29 W 997,2 50 0,0
13.12.2017 00:00:00 -1,2 -2,9 33 18 54 29 WNW 996,4 50 0,0
12.12.2017 23:00:00 -1,0 -3,0 30 16 54 29 WNW 995,3 50 0,0
12.12.2017 22:00:00 -0,6 -2,7 39 21 57 31 NW 994,3 50 0,0
12.12.2017 21:00:00 0,1 -1,8 41 22 57 31 NW 993,2 50 0,0
12.12.2017 20:00:00 0,6 -0,5 42 23 55 30 NW 992,1 15 0,0
12.12.2017 19:00:00 0,9 0,8 38 20 54 29 NW 990,8 8 0,1
12.12.2017 18:00:00 1,1 1,0 29 16 48 26 NNW 989,5 6 0,1
12.12.2017 17:00:00 1,1 1,0 28 15 46 25 NNW 988,1 11 0,0
12.12.2017 16:00:00 1,1 1,0 24 13 41 22 NNW 986,8 11 0,0
12.12.2017 15:00:00 1,4 1,3 25 14 39 21 NNW 985,6 50 0,1
12.12.2017 14:00:00 1,3 1,2 22 12 31 17 NNW 984,8 33 0,1
12.12.2017 13:00:00 1,2 1,1 16 8 25 13 NNW 984,5 12 0,7
12.12.2017 12:00:00 1,8 1,7 16 9 25 13 NNW 984,8 10 0,6
12.12.2017 11:00:00 2,3 2,2 13 7 21 12 NNW 985,0 10 0,7
12.12.2017 10:00:00 2,4 2,3 13 7 21 11 N 985,1 9 0,6
12.12.2017 09:00:00 2,3 2,2 14 8 20 11 N 985,5 12 0,4
12.12.2017 08:00:00 2,6 2,5 13 7 20 11 N 986,0 7 0,8
12.12.2017 07:00:00 3,6 2,6 6 3 21 12 ESE 986,7 21 0,8
12.12.2017 06:00:00 3,8 3,2 12 6 41 22 SSE 987,5 14 1,3
12.12.2017 05:00:00 2,9 2,8 12 6 41 22 NNE 988,4 10 1,0
12.12.2017 04:00:00 1,6 1,5 27 14 41 22 NNE 988,8 6 1,4
12.12.2017 03:00:00 1,7 1,6 32 17 40 22 NNE 989,3 4,4 0,9
12.12.2017 02:00:00 2,7 2,3 31 17 37 20 ENE 990,3 6 1,3
12.12.2017 01:00:00 2,4 1,7 23 12 33 18 E 991,7 6 0,8
12.12.2017 00:00:00 3,0 0,9 23 13 37 20 E 992,4 12 0,4
11.12.2017 23:00:00 2,9 0,6 28 15 37 20 E 993,2 13 0,1
11.12.2017 22:00:00 3,2 -0,8 22 12 38 21 ESE 994,2 36 0,0
11.12.2017 21:00:00 3,0 -1,2 22 12 38 21 E 994,4 41 0,0
11.12.2017 20:00:00 3,2 -1,9 29 16 35 19 ESE 994,1 41 0,0
11.12.2017 19:00:00 3,1 -1,5 26 14 40 22 E 994,4 41 0,0
11.12.2017 18:00:00 2,9 -1,3 29 16 42 23 ESE 994,9 32 0,0
11.12.2017 17:00:00 2,9 -1,5 34 18 46 25 ESE 994,3 32 0,0
11.12.2017 16:00:00 3,0 -1,7 35 19 46 25 ESE 994,6 33 0,0
11.12.2017 15:00:00 3,2 -2,1 34 18 43 23 ESE 994,4 50 0,0
11.12.2017 14:00:00 3,0 -1,2 30 16 50 27 ESE 994,0 36 0,0
11.12.2017 13:00:00 2,8 -2,3 38 21 50 27 E 993,0 42 0,0
11.12.2017 12:00:00 2,8 -1,2 36 19 47 25 ESE 993,2 34 0,2
11.12.2017 11:00:00 3,3 -1,8 32 18 44 24 ESE 993,8 40 0,0
11.12.2017 10:00:00 3,6 -2,0 34 19 44 24 SE 993,3 40 0,0
11.12.2017 09:00:00 3,3 0,2 27 15 36 20 ESE 992,8 43 0,0
11.12.2017 08:00:00 1,7 0,5 29 15 45 24 E 992,8 8 0,1
11.12.2017 07:00:00 0,7 0,6 35 19 45 24 SSE 992,6 4,4 0,2
11.12.2017 06:00:00 3,0 -0,8 24 13 32 18 ESE 991,6 50 0,0
11.12.2017 05:00:00 2,9 -1,3 21 11 35 19 SE 991,5 50 0,0
11.12.2017 04:00:00 3,1 -0,9 24 13 35 19 SSE 991,5 50 0,0
11.12.2017 03:00:00 3,5 -2,7 22 12 37 20 S 991,2 50 0,0
11.12.2017 02:00:00 2,4 -0,2 17 9 51 28 S 991,3 50 0,0
11.12.2017 01:00:00 2,7 -0,8 27 15 51 28 S 991,0 50 0,0
11.12.2017 00:00:00 2,4 -0,2 15 8 61 33 SSW 991,0 6 0,6
10.12.2017 23:00:00 2,2 -0,1 35 19 61 33 S 990,9 39 0,0
10.12.2017 22:00:00 1,4 0,1 16 8 27 15 S 990,9 3,9 0,2
10.12.2017 21:00:00 1,8 -0,5 10 5 31 17 SSW 990,8 22 0,0
10.12.2017 20:00:00 1,9 -1,5 18 10 39 21 WSW 990,6 50 0,0
10.12.2017 19:00:00 2,4 -1,2 24 13 40 22 SW 990,3 50 0,0

tt = Température de l'air
td = dewpoint
ff = Vitesse du vent
fx = gusts
dd = Direction du vent
ppp = reduced air pressure
vv = visibility
rr = Quantités de précipitations

stations d'obs. à proximité